Location: 相模原市立博物館
(35.5593°N, 139.3931°E)
Time: 14:09:28
(UTC+09:00)

ITAMSAT 1 - Visible Passes

Search period start: 28 January 2022 00:00
Search period end: 07 February 2022 00:00
Orbit: 783 x 797 km, 98.9° (Epoch: 27 January)

Date Brightness Start Highest point End Pass type
(mag) Time Alt. Az. Time Alt. Az. Time Alt. Az.
28 Jan 7.9 17:55:01 10° SE 17:59:53 44° ENE 18:04:47 10° N visible
28 Jan 10.2 19:35:53 10° SW 19:39:29 19° W 19:43:05 10° NW visible
29 Jan 10.6 06:11:34 10° NE 06:15:14 19° E 06:18:53 10° SE visible
29 Jan 8.7 17:26:36 10° ESE 17:30:36 23° ENE 17:34:36 10° NNE visible
29 Jan 9.1 19:05:01 10° SSW 19:09:47 37° W 19:14:34 10° NNW visible
30 Jan 7.8 18:35:03 10° S 18:40:13 75° WSW 18:45:24 10° NNW visible
31 Jan 7.7 18:05:43 10° SSE 18:10:45 56° ENE 18:15:49 10° N visible
31 Jan 10.5 19:47:41 10° SW 19:50:30 15° W 19:53:18 10° WNW visible
01 Feb 8.4 17:37:02 10° SE 17:41:26 29° ENE 17:45:49 10° N visible
01 Feb 9.6 19:16:18 10° SSW 19:20:45 29° W 19:25:14 10° NW visible
02 Feb 11.1 05:54:32 10° ENE 05:56:28 12° E 05:58:23 10° ESE visible
02 Feb 8.2 18:46:04 10° S 18:51:08 58° W 18:56:15 10° NNW visible
03 Feb 7.5 18:16:30 10° SSE 18:21:38 71° ENE 18:26:48 10° N visible
03 Feb 10.8 20:00:07 10° WSW 20:01:31 11° W 20:02:56 10° WNW visible
04 Feb 8.2 17:47:35 10° SE 17:52:16 36° ENE 17:56:57 10° N visible
04 Feb 9.9 19:27:42 10° SSW 19:31:44 23° W 19:35:47 10° NW visible
05 Feb 10.8 06:04:25 10° ENE 06:07:29 16° E 06:10:33 10° SE visible
05 Feb 8.7 18:57:09 10° S 19:02:04 45° W 19:07:02 10° NNW visible
06 Feb 7.6 18:27:22 10° SSE 18:32:32 90° NE 18:37:43 10° NNW visible
